Other Public Products
Issued by NWS Grand Forks, ND

Home | Current Version | Previous Version | Graphics & Text | Print | Product List | Glossary On
Versions: 1 2 3 4 5 6 7 8 9 10 11 12 13 14 15 16 17 18 19 20 21 22 23 24 25 26 27 28 29 30 31 32 33 34 35 36 37 38 39 40 41 42 43 44 45 46 47 48 49 50
000
FPUS83 KFGF 061031
OPUFGF
PRAIRIE TO PINES WEATHER ROUNDUP
NATIONAL WEATHER SERVICE EASTERN NORTH DAKOTA/GRAND FORKS ND
400 AM CST SAT FEB 06 2016

 **SATELLITE DATA USED TO AUGMENT SKY COVER AT AUTOMATED STATIONS**
 *****  WEATHER ACROSS EASTERN NORTH DAKOTA  *****

CITY           SKY/WX    TMP DP  RH WIND       PRES   REMARKS
GRAND FORKS    PTCLDY    23  18  81 S8        29.95F WCI  14
GRAND FORKS AF CLOUDY    21  17  86 S7        29.93F WCI  12
GRAND CITY NWS   N/A     21 N/A N/A S5          N/A  WCI  15
BUXTON           N/A     21  20  96 S8          N/A  WCI  11
DEVILS LAKE    CLOUDY    21  18  88 S5        29.87F WCI  15
FARGO          CLOUDY    23  17  78 S10       29.99F WCI  12
WAHPETON ARPT  CLOUDY   N/A N/A N/A SE7       30.02F
$$

 *****  WEATHER ACROSS CENTRAL AND WESTERN NORTH DAKOTA  *****

CITY           SKY/WX    TMP DP  RH WIND       PRES   REMARKS
JAMESTOWN      CLOUDY    29  23  78 SW9       29.91F WCI  20
BISMARCK       CLEAR     31  22  69 SW5       29.92F
MINOT          CLOUDY    36  22  56 SW14      29.79F
MINOT AFB      CLOUDY    31  28  88 SW1       29.78F
GARRISON         N/A     27  22  81 CALM      29.84F
WILLISTON      CLOUDY    30  25  81 SW6       29.82F WCI  24
DICKINSON      MOCLDY    33  22  63 W17       29.87F WCI  22
HETTINGER      PTCLDY    28  20  71 W8        29.96F WCI  20
$$

 *****  OTHER OBSERVATIONS NORTHEAST NORTH DAKOTA  *****

CITY           SKY/WX    TMP DP  RH WIND       PRES   REMARKS
WALHALLA       FAIR      21  21 100 SE6       29.88F WCI  14
LANGDON        FAIR      19  16  86 S12       29.84F WCI   7
CAVALIER       PTSUNNY   21  19  93 S3        29.90F
GRAFTON        FAIR      18  18 100 SE8       29.93F WCI   7
CANDO          PTSUNNY   16  14  93 SE7       29.86F WCI   6
FORT TOTTEN    NOT AVBL
ROLLA          CLOUDY    18  18 100 S5        29.80F WCI  11
RUGBY          FAIR      25  23  93 S7        29.81F WCI  17
 ***** THE ABOVE OBSERVATIONS ARE NON NWS ARE NOT QUALITY
        CONTROLLED AND MAY MIS-REPORT RAIN FOR SNOW...
$$

 *****  OTHER OBSERVATIONS SOUTHEAST NORTH DAKOTA *****

CITY           SKY/WX    TMP DP  RH WIND       PRES   REMARKS
COOPERSTOWN    NOT AVBL
VALLEY CITY    FAIR      19  19 100 S9        29.94F WCI   9
OAKES          FAIR      23  21  93 S14       29.97F WCI  11
GWINNER          N/A     25  23  93 SW15      29.98F WCI  12
SHEYENNE NWR     N/A     22  19  87 SW5       29.95S WCI  16
BUFFALO          N/A     26  19  73 SW12        N/A  WCI  16
WYNDMERE       NOT AVBL
 ***** THE ABOVE OBSERVATIONS ARE NON NWS ARE NOT QUALITY
       CONTROLLED AND MAY MIS-REPORT RAIN FOR SNOW...
$$

  *****  WEATHER ACROSS NORTHERN MINNESOTA  *****

CITY           SKY/WX    TMP DP  RH WIND       PRES   REMARKS
FLAG ISLAND    LGT SNOW  18  16  93 S6        29.95F WCI   9
WARROAD        CLOUDY    19  16  86 SE3       29.95F
ROSEAU         CLOUDY    21  16  79 S8        29.94F WCI  12
HALLOCK        CLOUDY    21  19  93 SE10      29.92F WCI  10
THF RVR FALLS  CLOUDY    21  19  93 S8        29.96F WCI  12
HALSTAD          N/A     21  18  87 S12         N/A  WCI   9
FOSSTON        CLOUDY    21  19  93 S8        29.97F WCI  12
BAUDETTE       CLOUDY    18  13  80 SE5       29.97F WCI  11
WASKISH        CLOUDY    19  18  93 CALM      29.98F
CROOKSTON      CLOUDY    21  19  93 S10       29.97F WCI  10
$$
  *****  WEATHER ACROSS CENTRAL AND WEST MINNESOTA  *****

CITY           SKY/WX    TMP DP  RH WIND       PRES   REMARKS
BEMIDJI        MOCLDY    19  17  94 S3        29.98F
PARK RAPIDS    CLOUDY    20  18  92 S6        30.01F FOG     WCI  12
WADENA         CLOUDY    19  19 100 S3        30.02F
DETROIT LAKES  CLOUDY    23  21  93 SE6       30.00F WCI  16
MOORHEAD       PTCLDY    19  18  93 S9        30.00F WCI   9
FERGUS FALLS   CLOUDY    19  18  93 S5        30.06F WCI  13
ELBOW LAKE     FAIR      19  18  96 SE5       30.04F WCI  12
MORRIS MN      CLOUDY    19  18  93 S7        30.05F WCI  10
STAPLES        CLOUDY    19  19 100 S5        30.04F FOG     WCI  13
WHEATON        CLOUDY    25  21  86 S9        30.05F WCI  15
$$
  *****  WEATHER ELSEWHERE ACROSS MINNESOTA  *****

CITY           SKY/WX    TMP DP  RH WIND       PRES   REMARKS
DULUTH         PTCLDY    17  13  84 W8        30.02F WCI   7
INTRNTL FALLS  CLOUDY    19  15  84 SW5       29.98F FOG     WCI  12
ELY            PTCLDY    18  16  93 SW5       29.99S WCI  11
CLOQUET        CLOUDY    19  16  86 SW3       30.03F
BRAINERD       CLOUDY    19  17  92 S7        30.06F FOG     WCI  10
HIBBING        PTCLDY    14  12  92 S3        30.01F
ALEXANDRIA     CLOUDY    20  17  88 S7        30.05F WCI  11
SAINT CLOUD    CLOUDY    23  20  88 SW6       30.10F WCI  16
MINNEAPOLIS    CLOUDY    25  20  81 W7        30.16S WCI  17
$$

  *****  WEATHER ACROSS SOUTH DAKOTA  *****

CITY           SKY/WX    TMP DP  RH WIND       PRES   REMARKS
SIOUX FALLS    CLOUDY    22  19  89 SW5       30.15F WCI  16
BROOKINGS      CLOUDY    17  16  95 S7        30.10F WCI   8
WATERTOWN      CLOUDY    16  12  84 SE7       30.06F WCI   6
HURON          CLEAR     23  20  88 S9        30.08F WCI  13
SISSETON         N/A     29  22  75 SW14      30.01F WCI  18
ABERDEEN       CLEAR     23  19  85 S10       30.03F WCI  12
MITCHELL       CLEAR     26  22  84 S10       30.14F WCI  16
PIERRE         CLEAR     28  22  78 SW13      30.05F WCI  17
MOBRIDGE       CLEAR     27  22  81 SE9       29.97F WCI  18
RAPID CITY     PTCLDY    24  16  71 CALM      30.07F
$$

  *****  SOME WEATHER IN NEARBY STATES *****

CITY           SKY/WX    TMP DP  RH WIND       PRES   REMARKS
GLASGOW MT     CLOUDY    36  26  67 SW7       29.84F
GREAT FALLS MT MOCLDY    44  21  40 SW32G40   29.91F
CHEYENNE WY    CLEAR     28  12  51 W18       30.17F WCI  15
SCOTTSBLUFF NE CLEAR     16  10  77 NW8       30.19F WCI   5
OMAHA NE       CLOUDY    32  29  88 NW5       30.25F
DES MOINES IA  CLOUDY    30  26  85 SW5       30.24S
DAVENPORT IA   CLOUDY    28  22  78 SW7       30.26F WCI  21
CHICAGO IL     CLOUDY    26  22  84 SW6       30.27S WCI  19
EAU CLAIRE WI  CLOUDY    25  20  81 SW7       30.14F WCI  17
LA CROSSE WI   CLOUDY    27  23  85 W3        30.20S
$$

  *****  SOME NATIONAL WEATHER *****

CITY           SKY/WX    TMP DP  RH WIND       PRES   REMARKS
LA GUARDIA NY  PTCLDY    33  18  53 NW9       30.38R
RALEIGH NC     CLOUDY    27  23  85 CALM      30.42R
ATLANTA GA     PTCLDY    33  20  58 E5        30.32F
NEW ORLEANS LA PTCLDY    39  31  72 CALM      30.36F
OKLAHOMA CITY  MOCLDY    39  35  86 NW8       30.28R
ALBUQUERQUE NM CLEAR     26  12  55 NE8       30.46F WCI  18
SALT LAKE CITY CLEAR     25  19  78 S8        30.52S WCI  16
LOS ANGELES CA CLEAR     57  25  29 E3        30.28S
BOISE ID       CLOUDY    34  27  75 SE15      30.42R WCI  24
SEATTLE WA     PTCLDY    43  37  79 S16G22    30.28R
$$

*** WEATHER ACROSS MANITOBA...SASKATCHEWAN AND ONTARIO ***
                ***ONTARIO***

CITY           SKY/WX    TMP DP  RH WIND       PRES   REMARKS
GERALDTON      FLURRIES   9   7  92 NW5       29.90S WCI   0
THUNDER BAY    CLOUDY    21  16  79 W5        30.01S WCI  15
SIOUX LOOKOUT  FLURRIES  12   9  85 NE2       29.96S
TORONTO        CLOUDY    30  23  74 W5        30.17F
BIG TROUT LK   CLEAR    -29 -35  75 N6        30.09R WCI -46
PICKLE LAKE    NOT AVBL
DRYDEN         CLOUDY    14  12  92 W3        29.95F
KENORA         FLURRIES  12  10  92 SE5       29.94F WCI   4
$$
                *** MANITOBA***

CITY           SKY/WX    TMP DP  RH WIND       PRES   REMARKS
BRANDON        MOCLDY    19  18  93 E7        29.80F WCI  10
DAUPHIN        CLOUDY    19  18  93 SE12      29.78F WCI   7
ISLAND LAKE    CLEAR    -22 -27  76 E3        30.06F
PILOT MOUND      N/A     18  14  86 SE9         N/A  WCI   6
THE PAS        FLURRIES  10   5  79 SE17G25   29.77F WCI  -7
THOMPSON       CRYSTALS -22 -29  69 E5        30.01F WCI -36
WINNIPEG       FLURRIES  18  14  86 SE9       29.91F WCI   6
LYNN LAKE      LGT SNOW -13 -17  84 SE14      29.80F WCI -35
CHURCHILL      CLEAR    -36 -44  67 W7        30.18F WCI -57
$$
                ***SASKATCHEWAN***

CITY           SKY/WX    TMP DP  RH WIND       PRES   REMARKS
ESTEVAN        NOT AVBL
KINDERSLEY     CLOUDY    37  28  70 SW10      29.54F
LLOYDMINSTER   CLOUDY    36  27  69 W16       29.43F
PRINCE ALBERT  CLOUDY    16  12  86 E7        29.55F WCI   6
REGINA         CLOUDY    27  23  86 SW12      29.65F WCI  16
YORKTON        CLOUDY    23  19  86 S12G17    29.65F WCI  12
N. BATTLEFORD  CLOUDY    27  27 100 SE8       29.51F WCC1F1C2F2C3F3C4F4C5F5C6F6C7F7C8F8C9F9CaFaCbFbCcFcCdFdCe!


USA.gov is the U.S. government's official web portal to all federal, state and local government web resources and services.